Zurück zum Katalog

ASIASAT 4

AktivKommunikationGEO
NORAD 27718·PAYLOAD·🇸🇭 SH

Gestartet Apr 12, 2003 von Cape Canaveral Space Force Station

Loading…

TLE

AktuellSource: Space-Track

Epoche: Sep 14, 2026, 13:22 UTC

1 27718U 03014A   26257.55729080 -.00000229  00000-0  00000-0 0  9995
2 27718   4.9261  74.5758 0002739 105.5706 161.5749  1.00270674 46190

Verfolge ASIASAT 4 in Echtzeit mit AllMySat

Download on the App Store